• In Netherlands
  • List of Countries
  • For 7 days
  • Water Temperature
  • Satellite Maps
  • Weather Map
  • Weather Widgets
  • user-avatar
    Login

    Hourly Weather Mazari Sharif

    Today, 18 January, Wednesday

    Time Temperature Precipitation Wind Pressure Humidity
    00:00 -1°C° 0 mm 0 mps 658 mmHg 74%
    01:00 -1°C° 0 mm 0 mps 658 mmHg 75%
    02:00 -2°C° 0 mm 0 mps 658 mmHg 75%
    03:00 -2°C° 0 mm 0 mps 658 mmHg 75%
    04:00 -2°C° 0 mm 0 mps 658 mmHg 75%
    05:00 -1°C° 0 mm 1 mps 658 mmHg 75%
    06:00 -1°C° 0 mm 1 mps 658 mmHg 75%
    07:00 -1°C° 0 mm 1 mps 658 mmHg 75%
    08:00 0°C° 0 mm 1 mps 659 mmHg 69%
    09:00 +1°C° 0 mm 1 mps 659 mmHg 63%
    10:00 +2°C° 0 mm 1 mps 660 mmHg 57%
    11:00 +2°C° 0 mm 2 mps 659 mmHg 55%
    12:00 +3°C° 0 mm 2 mps 659 mmHg 53%
    13:00 +3°C° 0 mm 2 mps 659 mmHg 51%
    14:00 +3°C° 0 mm 2 mps 659 mmHg 52%
    15:00 +3°C° 0 mm 2 mps 659 mmHg 54%
    16:00 +2°C° 0 mm 2 mps 659 mmHg 55%
    17:00 +2°C° 0 mm 2 mps 659 mmHg 58%
    18:00 +1°C° 0 mm 2 mps 659 mmHg 61%
    19:00 -1°C° 0 mm 2 mps 659 mmHg 64%
    20:00 -1°C° 0 mm 2 mps 659 mmHg 63%
    21:00 -1°C° 0 mm 2 mps 659 mmHg 62%
    22:00 -1°C° 0 mm 2 mps 659 mmHg 61%
    23:00 -1°C° 0 mm 2 mps 659 mmHg 60%

    Tomorrow, 19 January, Thursday

    Time Temperature Precipitation Wind Pressure Humidity
    00:00 -1°C° 0 mm 2 mps 659 mmHg 58%
    01:00 -2°C° 0 mm 2 mps 659 mmHg 57%
    02:00 -2°C° 0 mm 2 mps 659 mmHg 55%
    03:00 -2°C° 0 mm 2 mps 659 mmHg 54%
    04:00 -2°C° 0 mm 2 mps 659 mmHg 52%
    05:00 -2°C° 0 mm 2 mps 659 mmHg 50%
    06:00 -2°C° 0 mm 2 mps 659 mmHg 48%
    07:00 -2°C° 0 mm 3 mps 659 mmHg 46%
    08:00 +1°C° 0 mm 2 mps 659 mmHg 41%
    09:00 +3°C° 0 mm 2 mps 660 mmHg 37%
    10:00 +4°C° 0 mm 2 mps 660 mmHg 33%
    11:00 +5°C° 0 mm 2 mps 659 mmHg 31%
    12:00 +6°C° 0 mm 2 mps 659 mmHg 30%
    13:00 +5°C° 0 mm 3 mps 658 mmHg 29%
    14:00 +6°C° 0 mm 2 mps 658 mmHg 33%
    15:00 +5°C° 0 mm 2 mps 658 mmHg 36%
    16:00 +5°C° 0 mm 2 mps 658 mmHg 39%
    17:00 +4°C° 0 mm 2 mps 658 mmHg 41%
    18:00 +3°C° 0 mm 2 mps 658 mmHg 43%
    19:00 +2°C° 0 mm 2 mps 658 mmHg 45%
    20:00 +2°C° 0 mm 2 mps 658 mmHg 44%
    21:00 +2°C° 0 mm 2 mps 658 mmHg 43%
    22:00 +2°C° 0 mm 2 mps 658 mmHg 42%
    23:00 +2°C° 0 mm 2 mps 658 mmHg 41%

    Day after tomorrow, 20 January, Friday

    Time Temperature Precipitation Wind Pressure Humidity
    00:00 +2°C° 0 mm 2 mps 658 mmHg 41%
    01:00 +1°C° 0 mm 3 mps 658 mmHg 41%
    02:00 0°C° 0 mm 3 mps 658 mmHg 41%
    03:00 0°C° 0 mm 3 mps 658 mmHg 40%
    04:00 +1°C° 0 mm 2 mps 658 mmHg 40%
    05:00 +1°C° 0 mm 2 mps 658 mmHg 39%
    06:00 +1°C° 0 mm 2 mps 658 mmHg 39%
    07:00 +1°C° 0 mm 2 mps 658 mmHg 38%
    08:00 +3°C° 0 mm 2 mps 658 mmHg 36%
    09:00 +5°C° 0 mm 2 mps 659 mmHg 34%
    10:00 +7°C° 0 mm 2 mps 659 mmHg 31%
    11:00 +7°C° 0 mm 2 mps 659 mmHg 30%
    12:00 +8°C° 0 mm 2 mps 658 mmHg 28%
    13:00 +9°C° 0 mm 2 mps 657 mmHg 27%
    14:00 +8°C° 0 mm 2 mps 657 mmHg 29%
    15:00 +7°C° 0 mm 2 mps 657 mmHg 31%
    16:00 +8°C° 0 mm 1 mps 657 mmHg 33%
    17:00 +7°C° 0 mm 1 mps 657 mmHg 35%
    18:00 +6°C° 0 mm 1 mps 657 mmHg 36%
    19:00 +6°C° 0 mm 1 mps 657 mmHg 38%
    20:00 +5°C° 0 mm 1 mps 657 mmHg 38%
    21:00 +5°C° 0 mm 1 mps 657 mmHg 39%
    22:00 +4°C° 0 mm 0 mps 657 mmHg 39%
    23:00 +4°C° 0 mm 1 mps 657 mmHg 40%

    21 January, Saturday

    Time Temperature Precipitation Wind Pressure Humidity
    00:00 +4°C° 0 mm 1 mps 657 mmHg 40%
    01:00 +4°C° 0 mm 1 mps 657 mmHg 41%
    02:00 +4°C° 0 mm 1 mps 657 mmHg 45%
    03:00 +2°C° 0 mm 2 mps 657 mmHg 49%
    04:00 +2°C° 0 mm 2 mps 657 mmHg 53%
    05:00 +2°C° 0 mm 2 mps 657 mmHg 57%
    06:00 +1°C° 0 mm 2 mps 657 mmHg 61%
    07:00 +1°C° 0 mm 2 mps 658 mmHg 65%
    08:00 +2°C° 0 mm 2 mps 658 mmHg 62%
    09:00 +3°C° 0 mm 2 mps 658 mmHg 59%
    10:00 +3°C° 0 mm 2 mps 659 mmHg 56%
    11:00 +4°C° 0 mm 2 mps 658 mmHg 54%
    12:00 +5°C° 0 mm 2 mps 658 mmHg 52%
    13:00 +5°C° 0 mm 2 mps 658 mmHg 50%
    14:00 +5°C° 0 mm 2 mps 658 mmHg 52%
    15:00 +5°C° 0 mm 2 mps 658 mmHg 53%
    16:00 +5°C° 0 mm 1 mps 658 mmHg 55%
    17:00 +5°C° 0.1 mm 1 mps 658 mmHg 58%
    18:00 +4°C° 0.1 mm 1 mps 658 mmHg 61%
    19:00 +4°C° 0.1 mm 1 mps 658 mmHg 63%
    20:00 +4°C° 0 mm 1 mps 658 mmHg 63%
    21:00 +3°C° 0 mm 2 mps 658 mmHg 63%
    22:00 +3°C° 0 mm 2 mps 658 mmHg 63%
    23:00 +3°C° 0 mm 2 mps 657 mmHg 61%

    22 January, Sunday

    Time Temperature Precipitation Wind Pressure Humidity
    00:00 +2°C° 0 mm 2 mps 657 mmHg 60%
    01:00 +2°C° 0 mm 2 mps 657 mmHg 59%
    02:00 +1°C° 0 mm 3 mps 656 mmHg 57%
    03:00 +1°C° 0 mm 3 mps 656 mmHg 56%
    04:00 +1°C° 0 mm 3 mps 656 mmHg 54%
    05:00 +1°C° 0 mm 3 mps 656 mmHg 54%
    06:00 +2°C° 0 mm 2 mps 656 mmHg 54%
    07:00 +2°C° 0 mm 2 mps 656 mmHg 54%
    08:00 +3°C° 0 mm 2 mps 656 mmHg 52%
    09:00 +6°C° 0 mm 1 mps 657 mmHg 49%
    10:00 +7°C° 0 mm 1 mps 657 mmHg 47%
    11:00 +8°C° 0.1 mm 1 mps 656 mmHg 46%
    12:00 +8°C° 0.1 mm 1 mps 656 mmHg 46%
    13:00 +8°C° 0.1 mm 1 mps 655 mmHg 45%
    14:00 +8°C° 0.1 mm 1 mps 655 mmHg 47%
    15:00 +8°C° 0.1 mm 1 mps 655 mmHg 48%
    16:00 +8°C° 0.1 mm 1 mps 655 mmHg 50%
    17:00 +6°C° 0 mm 2 mps 655 mmHg 51%
    18:00 +6°C° 0 mm 2 mps 655 mmHg 53%
    19:00 +5°C° 0 mm 2 mps 656 mmHg 54%
    20:00 +5°C° 0 mm 2 mps 655 mmHg 52%
    21:00 +4°C° 0 mm 3 mps 655 mmHg 51%
    22:00 +4°C° 0 mm 3 mps 655 mmHg 49%
    23:00 +4°C° 0.1 mm 3 mps 655 mmHg 51%

    23 January, Monday

    Time Temperature Precipitation Wind Pressure Humidity
    00:00 +5°C° 0.1 mm 2 mps 654 mmHg 52%
    01:00 +5°C° 0.1 mm 2 mps 654 mmHg 54%
    02:00 +5°C° 0.1 mm 2 mps 654 mmHg 54%
    03:00 +5°C° 0.1 mm 2 mps 654 mmHg 54%
    04:00 +5°C° 0.1 mm 2 mps 654 mmHg 55%
    05:00 +4°C° 0 mm 2 mps 654 mmHg 56%
    06:00 +4°C° 0 mm 2 mps 655 mmHg 58%
    07:00 +4°C° 0 mm 1 mps 655 mmHg 60%
    08:00 +6°C° 0 mm 1 mps 655 mmHg 55%
    09:00 +8°C° 0 mm 1 mps 656 mmHg 49%
    10:00 +9°C° 0 mm 1 mps 656 mmHg 44%
    11:00 +9°C° 0 mm 2 mps 655 mmHg 43%
    12:00 +10°C° 0 mm 2 mps 654 mmHg 41%
    13:00 +10°C° 0 mm 3 mps 653 mmHg 40%
    14:00 +9°C° 0 mm 3 mps 653 mmHg 45%
    15:00 +8°C° 0 mm 3 mps 653 mmHg 50%
    16:00 +7°C° 0 mm 3 mps 653 mmHg 55%
    17:00 +5°C° 0.6 mm 4 mps 654 mmHg 66%
    18:00 +2°C° 0.6 mm 5 mps 654 mmHg 77%
    19:00 +1°C° 0.6 mm 6 mps 655 mmHg 88%
    20:00 -1°C° 1 mm 7 mps 655 mmHg 88%
    21:00 -1°C° 1 mm 7 mps 656 mmHg 88%
    22:00 -2°C° 1 mm 7 mps 657 mmHg 88%
    23:00 -2°C° 0.7 mm 7 mps 657 mmHg 88%
    Show more